| time (UTC) | temp F | wind direction | speed MPH | gust MPH | rain 1hr in | rain 24hr in | rain mn in | humidity % | barometer mb |
| 20260504231355 | 73 | 94 | 0.0 | 3.0 | 0.00 | 0.31 | 0.31 | 45 | 1007.7 |
| 20260504230907 | 73 | 136 | 1.0 | 3.0 | 0.00 | 0.31 | 0.31 | 43 | 1007.7 |
| 20260504230340 | 73 | 94 | 1.0 | 4.0 | 0.00 | 0.31 | 0.31 | 44 | 1007.7 |
| 20260504225849 | 74 | 94 | 0.0 | 4.0 | 0.00 | 0.34 | 0.31 | 42 | 1007.6 |
| 20260504225342 | 74 | 96 | 1.0 | 2.0 | 0.00 | 0.34 | 0.31 | 40 | 1007.6 |
| 20260504224855 | 74 | 96 | 1.0 | 2.0 | 0.00 | 0.34 | 0.31 | 42 | 1007.6 |
| 20260504224508 | 73 | 97 | 0.0 | 1.0 | 0.01 | 0.34 | 0.31 | 42 | 1007.5 |
| 20260504224406 | 74 | 97 | 0.0 | 2.0 | 0.01 | 0.34 | 0.31 | 46 | 1007.7 |
| 20260504223838 | 75 | 102 | 0.0 | 4.0 | 0.02 | 0.34 | 0.31 | 40 | 1007.7 |
| 20260504223351 | 75 | 216 | 2.0 | 4.0 | 0.02 | 0.34 | 0.31 | 39 | 1007.7 |
| 20260504223049 | 74 | 130 | 1.0 | 6.0 | 0.02 | 0.34 | 0.31 | 39 | 1007.5 |
| 20260504222849 | 75 | 190 | 2.0 | 6.0 | 0.02 | 0.34 | 0.31 | 39 | 1007.7 |
| 20260504222400 | 74 | 212 | 4.0 | 7.0 | 0.02 | 0.34 | 0.31 | 42 | 1007.6 |
| 20260504221852 | 75 | 86 | 1.0 | 7.0 | 0.02 | 0.34 | 0.31 | 39 | 1007.6 |
| 20260504221557 | 74 | 295 | 1.0 | 7.0 | 0.02 | 0.34 | 0.31 | 39 | 1007.5 |
| 20260504221346 | 75 | 99 | 2.0 | 7.0 | 0.02 | 0.34 | 0.31 | 39 | 1007.7 |
| 20260504220839 | 75 | 114 | 1.0 | 6.0 | 0.02 | 0.34 | 0.31 | 39 | 1007.6 |
| 20260504220353 | 75 | 124 | 1.0 | 6.0 | 0.02 | 0.34 | 0.31 | 39 | 1007.7 |
| 20260504220043 | 75 | 198 | 2.0 | 6.0 | 0.02 | 0.34 | 0.31 | 38 | 1007.6 |
| 20260504215843 | 75 | 257 | 2.0 | 6.0 | 0.02 | 0.35 | 0.31 | 38 | 1007.7 |
| 20260504215335 | 76 | 80 | 3.0 | 6.0 | 0.03 | 0.35 | 0.31 | 38 | 1007.6 |
| 20260504214909 | 76 | 86 | 2.0 | 8.0 | 0.03 | 0.35 | 0.31 | 38 | 1007.7 |
| 20260504214542 | 75 | 161 | 2.0 | 8.0 | 0.02 | 0.34 | 0.30 | 38 | 1007.6 |
| 20260504214342 | 76 | 144 | 3.0 | 8.0 | 0.02 | 0.34 | 0.30 | 38 | 1007.7 |
| 20260504213853 | 75 | 62 | 1.0 | 8.0 | 0.02 | 0.33 | 0.29 | 38 | 1007.7 |
| 20260504213346 | 76 | 360 | 2.0 | 9.0 | 0.02 | 0.33 | 0.29 | 37 | 1007.6 |
| 20260504213044 | 75 | 183 | 1.0 | 9.0 | 0.02 | 0.33 | 0.28 | 37 | 1007.5 |
| 20260504212839 | 76 | 63 | 3.0 | 9.0 | 0.02 | 0.33 | 0.29 | 37 | 1007.6 |
| 20260504212352 | 76 | 175 | 2.0 | 9.0 | 0.02 | 0.33 | 0.29 | 37 | 1007.5 |
| 20260504211905 | 76 | 161 | 3.0 | 7.0 | 0.02 | 0.33 | 0.29 | 36 | 1007.5 |
| 20260504211515 | 76 | 261 | 1.0 | 7.0 | 0.04 | 0.33 | 0.28 | 35 | 1007.4 |
| 20260504211414 | 76 | 220 | 1.0 | 9.0 | 0.04 | 0.33 | 0.29 | 36 | 1007.5 |
| 20260504210846 | 77 | 49 | 2.0 | 9.0 | 0.04 | 0.33 | 0.29 | 35 | 1007.5 |
| 20260504210400 | 78 | 123 | 3.0 | 9.0 | 0.04 | 0.33 | 0.29 | 34 | 1007.4 |
| 20260504210052 | 77 | 178 | 1.0 | 9.0 | 0.04 | 0.33 | 0.28 | 34 | 1007.4 |
| 20260504205848 | 78 | 49 | 1.0 | 9.0 | 0.05 | 0.37 | 0.29 | 35 | 1007.5 |
| 20260504205341 | 78 | 226 | 1.0 | 7.0 | 0.04 | 0.36 | 0.28 | 35 | 1007.4 |
| 20260504204835 | 77 | 174 | 3.0 | 8.0 | 0.04 | 0.36 | 0.28 | 35 | 1007.4 |
| 20260504204549 | 76 | 97 | 1.0 | 9.0 | 0.04 | 0.36 | 0.28 | 36 | 1007.3 |
| 20260504204449 | 76 | 263 | 2.0 | 9.0 | 0.04 | 0.36 | 0.28 | 35 | 1007.4 |
| 20260504203935 | 78 | 22 | 1.0 | 3.0 | 0.03 | 0.35 | 0.27 | 34 | 1007.4 |
| 20260504203343 | 76 | 36 | 1.0 | 6.0 | 0.03 | 0.35 | 0.27 | 35 | 1007.6 |
| 20260504203037 | 75 | 337 | 1.0 | 8.0 | 0.03 | 0.35 | 0.27 | 35 | 1007.6 |
| 20260504202837 | 76 | 75 | 2.0 | 8.0 | 0.03 | 0.35 | 0.27 | 35 | 1007.7 |
| 20260504202349 | 75 | 159 | 4.0 | 9.0 | 0.03 | 0.35 | 0.27 | 35 | 1007.7 |
| 20260504201843 | 75 | 207 | 2.0 | 9.0 | 0.03 | 0.35 | 0.27 | 35 | 1007.9 |
| 20260504201559 | 75 | 207 | 2.0 | 9.0 | 0.01 | 0.33 | 0.25 | 34 | 1007.7 |
| 20260504201354 | 76 | 159 | 2.0 | 9.0 | 0.01 | 0.33 | 0.25 | 34 | 1007.8 |
| 20260504200847 | 76 | 126 | 3.0 | 9.0 | 0.01 | 0.33 | 0.25 | 34 | 1007.8 |
| 20260504200342 | 76 | 157 | 1.0 | 10.0 | 0.01 | 0.33 | 0.25 | 35 | 1007.9 |
| 20260504200052 | 75 | 153 | 4.0 | 10.0 | 0.01 | 0.33 | 0.25 | 34 | 1007.9 |
| 20260504195850 | 76 | 186 | 2.0 | 5.0 | 0.00 | 0.34 | 0.24 | 35 | 1008.0 |
| 20260504195424 | 76 | 84 | 1.0 | 5.0 | 0.00 | 0.34 | 0.24 | 35 | 1008.0 |
| 20260504194910 | 77 | 86 | 1.0 | 8.0 | 0.00 | 0.34 | 0.24 | 35 | 1008.1 |
| 20260504194543 | 76 | 82 | 0.0 | 8.0 | 0.00 | 0.34 | 0.24 | 34 | 1008.1 |
| 20260504194341 | 76 | 70 | 1.0 | 8.0 | 0.00 | 0.34 | 0.24 | 34 | 1008.2 |
| 20260504193914 | 76 | 115 | 1.0 | 8.0 | 0.00 | 0.34 | 0.24 | 35 | 1008.3 |
| 20260504193405 | 76 | 217 | 2.0 | 8.0 | 0.00 | 0.34 | 0.24 | 34 | 1008.4 |
| 20260504193038 | 76 | 159 | 2.0 | 8.0 | 0.01 | 0.34 | 0.24 | 33 | 1008.4 |
| 20260504192837 | 77 | 69 | 2.0 | 9.0 | 0.01 | 0.34 | 0.24 | 34 | 1008.4 |
| 20260504192349 | 77 | 62 | 2.0 | 8.0 | 0.01 | 0.34 | 0.24 | 34 | 1008.5 |
| 20260504191843 | 77 | 5 | 2.0 | 8.0 | 0.01 | 0.34 | 0.24 | 35 | 1008.6 |
| 20260504191606 | 76 | 340 | 2.0 | 8.0 | 0.01 | 0.34 | 0.24 | 33 | 1008.7 |
| 20260504191355 | 77 | 153 | 4.0 | 8.0 | 0.01 | 0.34 | 0.24 | 34 | 1008.6 |
| 20260504190849 | 75 | 134 | 1.0 | 9.0 | 0.01 | 0.34 | 0.24 | 36 | 1008.8 |
| 20260504190403 | 74 | 120 | 4.0 | 8.0 | 0.01 | 0.34 | 0.24 | 35 | 1008.9 |
| 20260504190100 | 74 | 155 | 2.0 | 8.0 | 0.01 | 0.34 | 0.24 | 35 | 1009.0 |
| 20260504185852 | 75 | 75 | 2.0 | 9.0 | 0.01 | 0.34 | 0.24 | 34 | 1009.0 |
| 20260504185406 | 75 | 129 | 1.0 | 9.0 | 0.02 | 0.34 | 0.24 | 34 | 1009.0 |
| 20260504184836 | 75 | 74 | 2.0 | 5.0 | 0.02 | 0.34 | 0.24 | 35 | 1009.1 |
| 20260504184550 | 75 | 145 | 1.0 | 5.0 | 0.02 | 0.34 | 0.24 | 34 | 1009.2 |
| 20260504184349 | 75 | 163 | 2.0 | 5.0 | 0.02 | 0.34 | 0.24 | 34 | 1009.2 |
| 20260504183841 | 75 | 89 | 0.0 | 8.0 | 0.02 | 0.34 | 0.24 | 34 | 1009.1 |
| 20260504183353 | 76 | 156 | 5.0 | 9.0 | 0.04 | 0.34 | 0.24 | 32 | 1009.2 |
| 20260504183047 | 77 | 221 | 2.0 | 11.0 | 0.03 | 0.33 | 0.23 | 31 | 1009.2 |
| 20260504182846 | 78 | 140 | 5.0 | 11.0 | 0.03 | 0.33 | 0.23 | 31 | 1009.2 |
| 20260504182344 | 78 | 98 | 4.0 | 11.0 | 0.03 | 0.33 | 0.23 | 32 | 1009.3 |
| 20260504181837 | 77 | 135 | 2.0 | 8.0 | 0.07 | 0.33 | 0.23 | 33 | 1009.2 |
| 20260504181555 | 77 | 149 | 3.0 | 8.0 | 0.07 | 0.33 | 0.23 | 32 | 1009.3 |
| 20260504181350 | 78 | 201 | 4.0 | 9.0 | 0.07 | 0.33 | 0.23 | 32 | 1009.2 |
| 20260504180842 | 77 | 154 | 2.0 | 9.0 | 0.07 | 0.33 | 0.23 | 33 | 1009.4 |
| 20260504180355 | 77 | 309 | 5.0 | 9.0 | 0.09 | 0.33 | 0.23 | 32 | 1009.4 |
| 20260504180045 | 75 | 80 | 3.0 | 8.0 | 0.10 | 0.33 | 0.23 | 33 | 1009.5 |
| 20260504175844 | 76 | 355 | 4.0 | 8.0 | 0.14 | 0.33 | 0.23 | 33 | 1009.5 |
| 20260504175417 | 75 | 139 | 3.0 | 7.0 | 0.13 | 0.32 | 0.22 | 33 | 1009.6 |
| 20260504174846 | 76 | 134 | 2.0 | 8.0 | 0.14 | 0.32 | 0.22 | 33 | 1009.6 |
| 20260504174539 | 76 | 190 | 3.0 | 8.0 | 0.14 | 0.32 | 0.22 | 33 | 1009.8 |
| 20260504174339 | 76 | 331 | 2.0 | 14.0 | 0.14 | 0.32 | 0.22 | 34 | 1009.6 |
| 20260504173347 | 76 | 44 | 2.0 | 9.0 | 0.12 | 0.30 | 0.20 | 34 | 1009.8 |
| 20260504173039 | 75 | 74 | 2.0 | 9.0 | 0.12 | 0.30 | 0.20 | 33 | 1010.0 |
| 20260504172838 | 76 | 35 | 3.0 | 10.0 | 0.12 | 0.30 | 0.20 | 33 | 1010.0 |
| 20260504172351 | 76 | 130 | 4.0 | 10.0 | 0.12 | 0.30 | 0.20 | 32 | 1010.1 |
| 20260504171843 | 76 | 36 | 4.0 | 10.0 | 0.08 | 0.26 | 0.16 | 35 | 1010.1 |
| 20260504171516 | 74 | 124 | 5.0 | 8.0 | 0.08 | 0.26 | 0.16 | 34 | 1010.1 |
| 20260504171415 | 75 | 347 | 4.0 | 7.0 | 0.08 | 0.26 | 0.16 | 34 | 1010.1 |
| 20260504170848 | 74 | 317 | 3.0 | 10.0 | 0.08 | 0.26 | 0.16 | 33 | 1010.2 |
| 20260504170341 | 73 | 55 | 4.0 | 10.0 | 0.06 | 0.24 | 0.14 | 34 | 1010.3 |
| 20260504081509 | 40 | 309 | 0.0 | 0.0 | 0.00 | 0.36 | 0.00 | 85 | 1014.5 |
| 20260504050355 | 39 | 309 | 0.0 | 0.0 | 0.00 | 0.36 | 0.00 | 83 | 1014.9 |
| 20260504050004 | 38 | 309 | 0.0 | 0.0 | 0.00 | 0.36 | 0.00 | 84 | 1015.3 |
| 20260504045904 | 39 | 309 | 0.0 | 0.0 | 0.00 | 0.36 | 0.00 | 84 | 1014.9 |
| 20260504045412 | 39 | 309 | 0.0 | 0.0 | 0.00 | 0.36 | 0.00 | 83 | 1014.9 |
| 20260504044905 | 39 | 309 | 0.0 | 0.0 | 0.00 | 0.36 | 0.00 | 83 | 1015.0 |
| 20260504044538 | 39 | 309 | 0.0 | 0.0 | 0.00 | 0.36 | 0.00 | 81 | 1015.4 |
| 20260504044337 | 39 | 309 | 0.0 | 0.0 | 0.00 | 0.36 | 0.00 | 81 | 1015.0 |
| 20260504043850 | 40 | 309 | 0.0 | 0.0 | 0.00 | 0.36 | 0.00 | 82 | 1015.0 |
| 20260504043402 | 40 | 309 | 0.0 | 0.0 | 0.00 | 0.36 | 0.00 | 81 | 1015.0 |
| 20260504043055 | 39 | 309 | 0.0 | 0.0 | 0.00 | 0.36 | 0.00 | 81 | 1015.4 |
| 20260504042853 | 40 | 309 | 0.0 | 0.0 | 0.00 | 0.36 | 0.00 | 81 | 1015.0 |
| 20260504042345 | 40 | 309 | 0.0 | 0.0 | 0.00 | 0.36 | 0.00 | 81 | 1015.0 |
| 20260504041836 | 40 | 309 | 0.0 | 0.0 | 0.00 | 0.36 | 0.00 | 80 | 1015.0 |
| 20260504041550 | 40 | 309 | 0.0 | 0.0 | 0.00 | 0.36 | 0.00 | 80 | 1015.4 |
| 20260504041350 | 41 | 309 | 0.0 | 0.0 | 0.00 | 0.36 | 0.00 | 80 | 1014.9 |
| 20260504040840 | 41 | 309 | 0.0 | 0.0 | 0.00 | 0.36 | 0.00 | 79 | 1015.0 |
| 20260504040353 | 41 | 309 | 0.0 | 0.0 | 0.00 | 0.36 | 0.00 | 78 | 1015.0 |
| 20260504040003 | 40 | 309 | 0.0 | 0.0 | 0.00 | 0.36 | 0.36 | 78 | 1015.5 |
| 20260504035903 | 41 | 309 | 0.0 | 0.0 | 0.00 | 0.36 | 0.36 | 77 | 1015.0 |
| 20260504035434 | 41 | 309 | 0.0 | 0.0 | 0.00 | 0.36 | 0.36 | 76 | 1015.0 |
| 20260504034902 | 41 | 309 | 0.0 | 0.0 | 0.00 | 0.36 | 0.36 | 77 | 1015.0 |
| 20260504034554 | 41 | 309 | 0.0 | 0.0 | 0.00 | 0.36 | 0.36 | 78 | 1015.4 |
| 20260504034354 | 41 | 309 | 0.0 | 0.0 | 0.00 | 0.36 | 0.36 | 78 | 1014.9 |
| 20260504033845 | 42 | 309 | 0.0 | 0.0 | 0.00 | 0.36 | 0.36 | 77 | 1015.0 |
| 20260504033337 | 42 | 309 | 0.0 | 0.0 | 0.00 | 0.36 | 0.36 | 77 | 1014.9 |
| 20260504033051 | 41 | 309 | 0.0 | 0.0 | 0.00 | 0.36 | 0.36 | 76 | 1015.2 |
| 20260504032850 | 42 | 309 | 0.0 | 0.0 | 0.00 | 0.36 | 0.36 | 76 | 1014.7 |
| 20260504032401 | 42 | 309 | 0.0 | 0.0 | 0.00 | 0.36 | 0.36 | 76 | 1014.7 |
| 20260504031853 | 43 | 309 | 0.0 | 0.0 | 0.00 | 0.36 | 0.36 | 76 | 1014.7 |
| 20260504031524 | 42 | 309 | 0.0 | 0.0 | 0.00 | 0.36 | 0.36 | 76 | 1015.1 |
| 20260504030910 | 43 | 309 | 0.0 | 0.0 | 0.00 | 0.36 | 0.36 | 72 | 1014.7 |
| 20260504030340 | 43 | 309 | 0.0 | 0.0 | 0.00 | 0.36 | 0.36 | 72 | 1014.8 |
| 20260504030049 | 43 | 309 | 0.0 | 0.0 | 0.00 | 0.36 | 0.36 | 71 | 1015.2 |
| 20260504025849 | 44 | 309 | 0.0 | 0.0 | 0.00 | 0.36 | 0.36 | 70 | 1014.7 |
| 20260504025346 | 44 | 309 | 0.0 | 0.0 | 0.00 | 0.36 | 0.36 | 69 | 1014.7 |
| 20260504024837 | 44 | 309 | 0.0 | 0.0 | 0.00 | 0.36 | 0.36 | 74 | 1014.8 |
| 20260504024606 | 43 | 23 | 0.0 | 0.0 | 0.00 | 0.36 | 0.36 | 74 | 1015.2 |
| 20260504024350 | 44 | 23 | 0.0 | 0.0 | 0.00 | 0.36 | 0.36 | 73 | 1014.8 |
| 20260504023843 | 44 | 23 | 0.0 | 0.0 | 0.00 | 0.36 | 0.36 | 71 | 1014.8 |
| 20260504023356 | 45 | 23 | 0.0 | 0.0 | 0.00 | 0.36 | 0.36 | 70 | 1014.7 |
| 20260504023049 | 44 | 23 | 0.0 | 0.0 | 0.00 | 0.36 | 0.36 | 70 | 1015.1 |
| 20260504022847 | 45 | 23 | 0.0 | 0.0 | 0.00 | 0.36 | 0.36 | 70 | 1014.6 |
| 20260504022338 | 45 | 23 | 0.0 | 0.0 | 0.00 | 0.36 | 0.36 | 70 | 1014.7 |
| 20260504021530 | 44 | 23 | 0.0 | 0.0 | 0.00 | 0.36 | 0.36 | 71 | 1015.2 |
| 20260504020840 | 45 | 23 | 0.0 | 0.0 | 0.00 | 0.36 | 0.36 | 69 | 1014.6 |
| 20260504020352 | 45 | 23 | 0.0 | 0.0 | 0.00 | 0.36 | 0.36 | 69 | 1014.5 |
| 20260504020043 | 45 | 23 | 0.0 | 0.0 | 0.00 | 0.36 | 0.36 | 68 | 1014.9 |
| 20260504015841 | 45 | 23 | 0.0 | 0.0 | 0.00 | 0.36 | 0.36 | 66 | 1014.5 |
| 20260504015412 | 46 | 23 | 0.0 | 0.0 | 0.00 | 0.36 | 0.36 | 66 | 1014.4 |
| 20260504014843 | 46 | 23 | 0.0 | 0.0 | 0.00 | 0.36 | 0.36 | 65 | 1014.4 |
| 20260504014604 | 45 | 23 | 0.0 | 0.0 | 0.00 | 0.36 | 0.36 | 64 | 1014.7 |
| 20260504014355 | 46 | 23 | 0.0 | 0.0 | 0.00 | 0.36 | 0.36 | 64 | 1014.3 |
| 20260504013848 | 46 | 23 | 0.0 | 0.0 | 0.00 | 0.36 | 0.36 | 64 | 1014.2 |
| 20260504013341 | 47 | 23 | 0.0 | 0.0 | 0.00 | 0.36 | 0.36 | 66 | 1014.1 |
| 20260504013056 | 46 | 23 | 0.0 | 0.0 | 0.00 | 0.36 | 0.36 | 65 | 1014.5 |
| 20260504012852 | 47 | 23 | 0.0 | 0.0 | 0.00 | 0.36 | 0.36 | 62 | 1014.1 |
| 20260504012341 | 47 | 23 | 0.0 | 0.0 | 0.00 | 0.36 | 0.36 | 60 | 1014.1 |
| 20260504011854 | 47 | 23 | 0.0 | 0.0 | 0.00 | 0.36 | 0.36 | 60 | 1014.0 |
| 20260504011545 | 47 | 23 | 0.0 | 0.0 | 0.00 | 0.36 | 0.36 | 59 | 1014.4 |
| 20260504011344 | 48 | 23 | 0.0 | 0.0 | 0.00 | 0.36 | 0.36 | 59 | 1014.0 |
| 20260504010857 | 48 | 23 | 0.0 | 0.0 | 0.00 | 0.36 | 0.36 | 60 | 1014.0 |
| 20260504010350 | 48 | 23 | 0.0 | 0.0 | 0.00 | 0.36 | 0.36 | 59 | 1014.0 |
| 20260504010040 | 48 | 23 | 0.0 | 0.0 | 0.00 | 0.36 | 0.36 | 58 | 1014.3 |
| 20260504005837 | 48 | 23 | 0.0 | 0.0 | 0.00 | 0.36 | 0.36 | 57 | 1013.9 |
| 20260504005349 | 49 | 23 | 0.0 | 0.0 | 0.00 | 0.36 | 0.36 | 57 | 1014.0 |
| 20260504004840 | 49 | 23 | 0.0 | 0.0 | 0.00 | 0.36 | 0.36 | 55 | 1013.9 |
| 20260504004553 | 49 | 23 | 0.0 | 0.0 | 0.00 | 0.36 | 0.36 | 55 | 1014.3 |
| 20260504004352 | 49 | 23 | 0.0 | 0.0 | 0.00 | 0.36 | 0.36 | 54 | 1013.9 |
| 20260504003845 | 50 | 23 | 0.0 | 0.0 | 0.00 | 0.36 | 0.36 | 55 | 1013.8 |
| 20260504003340 | 51 | 23 | 0.0 | 0.0 | 0.00 | 0.36 | 0.36 | 53 | 1013.8 |
| 20260504003010 | 51 | 23 | 0.0 | 0.0 | 0.00 | 0.36 | 0.36 | 52 | 1014.2 |
| 20260504002909 | 51 | 23 | 0.0 | 0.0 | 0.00 | 0.36 | 0.36 | 51 | 1013.8 |
| 20260504002359 | 52 | 23 | 0.0 | 0.0 | 0.00 | 0.36 | 0.36 | 50 | 1013.7 |
| 20260504001851 | 52 | 23 | 0.0 | 0.0 | 0.00 | 0.36 | 0.36 | 50 | 1013.7 |
| 20260504001550 | 52 | 23 | 0.0 | 0.0 | 0.00 | 0.36 | 0.36 | 50 | 1014.2 |
| 20260504001347 | 52 | 23 | 0.0 | 0.0 | 0.00 | 0.36 | 0.36 | 51 | 1013.7 |
| 20260504000838 | 53 | 23 | 0.0 | 0.0 | 0.00 | 0.36 | 0.36 | 50 | 1013.7 |
| 20260504000354 | 53 | 23 | 0.0 | 0.0 | 0.00 | 0.36 | 0.36 | 50 | 1013.7 |
| 20260504000059 | 53 | 23 | 0.0 | 0.0 | 0.00 | 0.36 | 0.36 | 50 | 1014.1 |
| 20260503235414 | 55 | 23 | 0.0 | 0.0 | 0.00 | 0.36 | 0.36 | 50 | 1013.5 |
| 20260503234846 | 55 | 23 | 0.0 | 0.0 | 0.00 | 0.36 | 0.36 | 51 | 1013.5 |
| 20260503234549 | 55 | 23 | 0.0 | 0.0 | 0.00 | 0.36 | 0.36 | 45 | 1013.9 |
| 20260503234337 | 56 | 23 | 0.0 | 0.0 | 0.00 | 0.36 | 0.36 | 44 | 1013.5 |
| 20260503233850 | 57 | 304 | 0.0 | 0.0 | 0.00 | 0.36 | 0.36 | 42 | 1013.4 |
| 20260503233341 | 58 | 304 | 0.0 | 1.0 | 0.00 | 0.36 | 0.36 | 35 | 1013.4 |
| 20260503233013 | 57 | 335 | 0.0 | 1.0 | 0.01 | 0.36 | 0.36 | 36 | 1013.9 |
| 20260503232913 | 58 | 347 | 0.0 | 1.0 | 0.01 | 0.36 | 0.36 | 36 | 1013.5 |
| 20260503232345 | 58 | 55 | 0.0 | 4.0 | 0.01 | 0.36 | 0.36 | 36 | 1013.4 |
| 20260503231916 | 59 | 42 | 0.0 | 5.0 | 0.01 | 0.36 | 0.36 | 34 | 1013.4 |